Weather Roundup
Issued by NWS

Home | Current Version | Previous Version | Graphics & Text | Print | Product List | Glossary Off
Versions: 1 2 3 4 5 6 7 8 9 10 11 12 13 14 15 16 17 18 19 20 21 22 23 24 25 26 27 28 29 30 31 32 33 34 35 36 37 38 39 40 41 42 43 44 45 46 47 48 49 50

000
NZUS93 KARX 311859
HRRWXR

CURRENT HOURLY OBSERVATIONS ACROSS
MUCH OF THE UPPER MISSISSIPPI VALLEY
NATIONAL WEATHER SERVICE LA CROSSE WI
200 PM CDT MON AUG 31 2015


...SOUTHEAST MINNESOTA...


CITY           SKY/WX    TMP DP  RH WIND       PRES   REMARKS
ROCHESTER      MOSUNNY   81  71  71 S16       29.98F
ROCHESTER/MAYO FAIR      81  70  68 S12G18    29.98S
WINONA         MOSUNNY   82  70  65 S3        29.97F
AUSTIN         MOSUNNY   82  72  69 S10       29.97F
ALBERT LEA     MOSUNNY   82  72  69 S9G16     29.96S
DODGE CENTER   PTSUNNY   81  70  69 S15       29.97F
PRESTON        MOSUNNY   80  69  68 S13G21    30.00F
OWATONNA       SUNNY     81  70  69 S10       29.95F
FARIBAULT      PTSUNNY   81  72  74 S12G17    29.94F
$$

...ELSEWHERE IN MINNESOTA...


CITY           SKY/WX    TMP DP  RH WIND       PRES   REMARKS
MINNEAPOLIS    MOSUNNY   83  69  62 S15G21    29.91F
INTNL FALLS    NOT AVBL
DULUTH         SUNNY     79  65  62 S18       29.86F
RED WING       MOSUNNY   84  70  61 S10G17    29.93F
REDWOOD FALLS  SUNNY     82  67  60 S20G31    29.86F
MANKATO        SUNNY     81  68  65 S17G24    29.92F
WORTHINGTON    MOSUNNY   79  66  65 S17G24    29.92S
FAIRMONT       PTSUNNY   81  66  61 S10G18    29.93S
$$

...SOUTHWEST WISCONSIN...


CITY           SKY/WX    TMP DP  RH WIND       PRES   REMARKS
LA CROSSE      MOSUNNY   83  70  64 S12       29.98F
PRAIRIE DU CHI MOSUNNY   82  68  63 S3        30.00F
BOSCOBEL       MOSUNNY   85  70  60 S6        30.02S
LONE ROCK      NOT AVBL
PLATTEVILLE    MOSUNNY   81  72  76 S6        30.04F
FORT MC COY    MOSUNNY   81  68  63 S6        30.01F
CAMP DOUGLAS   MOSUNNY   79  77  94 S6        30.01F
VIROQUA          N/A     80  69  69 S9        30.03F
WIS DELLS      PTSUNNY   80  65  61 SW7       30.04S
$$

...ELSEWHERE IN WISCONSIN...


CITY           SKY/WX    TMP DP  RH WIND       PRES   REMARKS
MILWAUKEE      MOSUNNY   79  66  64 SW9       30.05F
MADISON        PTSUNNY   81  68  64 S12       30.04F
GREEN BAY      PTSUNNY   77  67  71 SW9       30.02F
EAU CLAIRE     CLOUDY    76  68  76 S10       29.97F
BLACK RVR FLS  CLOUDY    79  68  70 SW5       30.00S
MEDFORD        CLOUDY    71  67  85 S8        30.02F
WAUSAU         CLOUDY    74  65  73 S8        30.01F
WIS RAPIDS     PTSUNNY   77  66  68 SW8       30.03F
MARSHFIELD     CLOUDY    74  66  76 S7        30.03S
RICE LAKE      CLOUDY    76  68  75 S10       29.98S
$$

...NORTHEAST IOWA...


CITY           SKY/WX    TMP DP  RH WIND       PRES   REMARKS
DECORAH        MOSUNNY   81  72  74 S9G16     30.00F
MASON CITY     PTSUNNY   83  73  72 S15       29.98S
CHARLES CITY   PTSUNNY   82  75  78 S10G20    29.99F
OELWEIN        MOSUNNY   82  73  74 S8G15     30.01F
$$

...ELSEWHERE IN IOWA...


CITY           SKY/WX    TMP DP  RH WIND       PRES   REMARKS
DES MOINES     MOSUNNY   87  71  58 S13       29.96F HX  93
IOWA CITY      MOSUNNY   86  73  65 SE8       30.01F HX  93
FORT DODGE     PTSUNNY   82  72  69 S10       29.96F
$$

...NORTHERN ILLINOIS...


CITY           SKY/WX    TMP DP  RH WIND       PRES   REMARKS
CHICAGO-OHARE  MOSUNNY   83  67  58 S7        30.05F
CHICAGO-MIDWAY MOSUNNY   86  67  52 VRB3      30.04F
MOLINE         MOSUNNY   87  70  56 VRB7      30.02F HX  92
ROCKFORD       MOSUNNY   84  68  58 S8        30.06F
PEORIA         MOSUNNY   89  69  51 CALM      30.03F HX  93
$$

NOTE: "FAIR" INDICATES FEW OR NO CLOUDS BELOW 12,000 FEET WITH NO
SIGNIFICANT WEATHER AND/OR OBSTRUCTIONS TO VISIBILITY. WIND
SPEEDS ARE IN MILES-PER-HOUR.



USA.gov is the U.S. government's official web portal to all federal, state and local government web resources and services.